Wetbulb
74.78 74.88 74.57 71.87 62.86 62.75 59.77 60.87 64.17 63.14 63.57 67.63 67.50 65.38 65.05 66.76 64.71 61.58 73.56 73.63 74.67 73.97 75.12 75.74 77.86 77.21 76.59 77.05 77.36 77.23 76.73 76.75 76.83 76.67 76.70 76.67 76.70 76.90 76.29 75.74 76.75 75.97 74.83 74.86 75.44 75.58 75.47 75.78 75.83
75.07 74.44 73.46 68.95 62.04 57.23 57.92 63.17 62.01 64.11 66.46 68.58 67.76 67.65 66.20 65.37 70.07 70.19 71.23 73.82 74.41 74.30 75.56 75.90 77.71 77.74 77.33 77.76 77.31 77.49 77.49 77.31 77.11 76.89 76.91 76.80 76.97 76.32 75.47 76.43 76.59 75.83 75.14 74.61 74.92 75.58 75.83 75.56 76.24
74.88 74.56 69.16 65.77 63.46 57.28 59.58 64.63 64.92 66.55 68.18 67.89 67.18 68.66 67.47 66.31 70.19 71.66 73.76 73.96 74.95 74.31 76.18 76.99 77.65 77.80 77.53 77.10 77.91 77.75 77.62 77.35 76.84 76.61 76.49 76.40 76.82 75.72 76.38 75.94 76.49 76.16 76.22 75.08 74.86 75.06 75.83 75.80 76.10
73.07 72.38 70.32 63.03 60.11 62.09 62.49 65.06 67.13 66.44 66.58 68.42 68.24 66.24 69.76 72.54 71.48 72.54 75.15 74.28 73.62 74.60 75.56 77.56 77.60 77.40 77.19 77.26 77.27 77.28 77.09 76.82 76.69 76.66 76.49 76.55 76.47 76.33 76.35 76.38 76.33 75.97 76.00 75.72 75.44 75.31 74.82 74.78 74.81
73.22 70.24 63.00 62.13 60.87 63.70 66.26 66.72 67.95 65.48 66.25 66.97 67.97 66.01 66.86 70.35 73.04 73.77 74.67 74.59 74.66 74.44 75.35 76.63 77.85 77.89 77.66 77.27 77.16 76.80 76.65 76.87 76.74 76.84 76.68 76.91 76.77 76.49 76.64 76.22 75.72 75.78 75.86 75.50 75.44 75.19 75.52 75.42 75.17
66.47 68.57 60.73 57.06 60.70 63.69 66.56 69.13 68.33 66.67 67.00 67.66 67.38 67.29 67.30 72.27 72.02 72.68 74.97 74.14 74.34 73.70 74.42 76.32 76.81 77.74 77.07 76.65 76.58 76.41 76.88 76.63 77.04 76.97 76.58 76.62 76.57 76.33 76.50 75.94 75.52 75.50 75.75 75.52 75.30 75.16 75.19 75.44 75.64
66.59 65.18 61.11 60.98 60.67 62.23 66.43 69.38 66.84 67.41 67.59 67.53 69.85 66.50 68.96 70.58 72.10 73.08 74.45 74.27 74.09 73.30 74.61 75.86 76.65 77.64 76.55 77.03 76.79 76.99 77.19 77.26 77.01 76.98 76.90 76.74 76.69 76.91 76.78 76.50 76.08 75.75 75.58 75.52 75.21 74.90 74.88 75.24 75.80
69.06 66.80 60.04 60.67 60.63 60.56 67.21 69.20 69.42 67.63 66.18 71.41 72.05 66.12 65.48 71.05 73.09 73.10 74.13 72.83 72.92 73.52 74.48 75.67 76.20 76.02 76.13 77.23 76.87 77.18 77.22 77.11 77.17 76.98 76.93 76.84 76.72 76.64 76.70 77.29 76.42 75.74 75.74 75.32 75.18 74.90 75.08 75.66 76.02
69.51 63.24 60.98 60.69 62.85 62.68 68.03 65.63 69.23 69.36 69.31 69.88 70.60 70.91 71.29 72.80 73.52 71.80 71.80 71.40 71.77 72.72 74.12 75.13 75.50 75.40 76.00 76.76 77.37 77.18 77.32 77.42 77.45 77.06 77.16 77.25 76.31 76.92 77.03 76.86 76.39 75.99 75.71 75.37 75.23 75.27 75.69 76.06 76.19
65.40 61.78 61.50 63.80 65.09 62.78 67.64 67.09 66.39 68.24 68.14 68.10 68.94 71.58 71.89 72.10 71.74 70.73 69.88 69.64 70.17 71.62 73.02 74.07 75.55 75.58 75.01 75.99 77.53 77.63 77.06 76.96 77.58 77.24 77.92 76.61 78.27 76.89 76.34 76.62 76.32 75.95 75.91 75.74 75.48 75.42 75.14 74.81 74.62
64.63 61.31 63.96 66.13 67.68 68.60 67.27 66.31 70.02 66.49 65.17 68.44 67.79 69.47 70.15 71.01 71.03 70.42 69.97 70.27 70.56 72.04 72.73 73.30 75.20 75.09 75.61 75.63 76.55 75.26 76.62 76.38 77.26 77.63 77.96 76.87 76.16 76.73 75.51 75.80 75.95 76.21 76.38 75.57 75.56 75.26 74.86 74.63 74.27
61.41 63.23 65.36 65.26 67.79 65.63 66.11 68.04 67.01 68.40 65.49 70.72 70.86 70.91 70.46 70.21 70.55 70.23 69.64 70.23 70.97 71.83 72.60 73.46 75.27 75.78 76.75 75.35 75.31 75.45 75.12 76.01 75.66 76.72 78.95 77.07 76.61 77.69 75.47 75.08 76.53 77.39 76.07 76.61 77.18 74.81 76.08 75.56 74.00
60.12 62.96 64.42 68.39 68.13 67.60 68.27 67.06 65.54 67.98 70.74 71.57 71.52 70.98 70.29 70.54 71.05 71.21 71.18 71.26 71.56 71.67 72.46 73.65 75.06 76.18 76.83 76.90 75.73 75.31 75.22 74.95 76.23 76.42 77.31 77.11 76.58 76.71 77.32 78.50 76.22 76.03 76.67 76.19 75.89 75.68 75.65 75.65 74.76
59.94 61.38 63.09 66.19 67.17 67.78 64.82 66.24 67.28 68.98 71.36 70.54 70.47 70.28 70.56 70.61 71.16 71.42 71.33 71.09 71.38 71.96 72.34 74.08 74.73 76.09 76.49 76.88 77.15 76.08 75.45 77.27 75.55 76.35 76.95 78.23 78.20 77.65 77.96 77.05 76.06 76.24 75.10 75.36 76.33 76.43 72.88 74.18 74.40
58.45 55.96 58.62 61.80 64.72 64.91 67.11 63.51 65.13 69.88 70.76 69.85 69.69 70.16 70.49 70.64 71.40 71.34 71.60 71.44 71.68 71.51 72.40 73.97 74.62 75.45 76.32 76.85 76.40 76.16 76.91 75.32 76.25 76.61 78.21 78.41 78.20 78.24 78.10 77.96 76.17 76.29 77.10 77.84 77.11 76.67 76.37 75.84 72.32
54.14 55.04 53.40 58.31 60.55 63.62 65.24 60.41 66.47 70.55 69.75 69.11 69.42 69.53 69.94 70.31 71.09 72.01 72.10 72.33 71.88 71.60 72.29 74.26 74.02 74.83 75.80 76.57 76.29 76.06 75.95 76.16 75.86 76.25 77.81 78.43 77.80 78.18 78.18 77.09 76.71 77.28 76.64 74.37 75.99 75.14 69.99 74.29 70.74
51.67 49.18 51.72 55.28 59.90 62.19 63.38 61.31 65.20 69.93 69.43 69.07 69.46 69.31 69.79 69.95 70.40 71.94 72.37 72.60 72.01 71.98 72.80 73.65 74.05 73.83 75.36 76.65 76.32 76.82 77.89 77.10 75.65 77.18 75.89 78.55 78.91 77.67 77.97 77.31 76.86 78.31 76.19 77.60 74.88 72.54 71.70 73.81 72.14
48.33 48.73 51.89 53.29 59.17 61.97 62.02 61.94 64.33 68.65 68.89 69.09 69.45 69.25 69.61 69.79 70.39 71.67 72.24 72.70 72.23 72.15 73.28 73.85 73.82 76.04 77.29 75.99 76.42 76.01 75.93 76.14 77.17 76.31 77.28 78.51 78.50 78.30 78.31 77.19 77.56 77.48 76.82 74.72 75.30 77.64 73.36 69.58 71.75
52.08 50.93 50.31 54.34 60.80 60.96 60.85 62.02 63.32 67.95 68.39 68.43 69.05 69.28 69.27 69.96 71.78 72.15 72.42 72.47 71.96 72.13 72.96 73.46 75.00 77.75 75.59 74.24 73.37 74.18 73.48 75.48 75.52 75.94 77.99 78.64 78.45 78.37 78.02 77.27 77.64 77.18 75.88 73.36 76.54 75.34 74.42 71.76 72.85
51.38 50.49 50.63 53.15 56.19 60.99 60.52 60.17 65.76 67.10 67.76 68.67 68.96 69.33 69.16 70.19 70.39 71.71 72.01 72.29 71.95 71.83 72.93 74.64 75.80 77.30 75.94 74.43 75.43 75.52 75.89 74.66 75.44 76.13 77.97 78.38 78.15 78.85 78.12 78.39 76.94 76.87 76.04 76.62 76.08 74.94 73.09 73.22 72.94
50.89 50.27 50.67 51.18 54.83 58.45 60.03 58.94 62.66 64.70 68.54 69.10 69.79 70.42 70.02 69.72 70.31 70.98 71.56 72.03 72.17 71.65 72.85 74.46 76.42 77.07 76.55 76.59 75.72 75.95 76.59 76.68 74.70 76.52 76.23 77.57 77.99 78.41 78.53 78.40 74.86 77.43 77.07 75.48 76.88 76.33 76.62 70.61 71.46
48.69 52.08 51.42 51.12 51.31 51.38 58.96 52.51 59.44 64.15 63.13 66.96 68.21 69.74 69.69 69.01 71.15 71.56 71.89 71.87 72.04 71.84 73.03 75.42 75.78 77.11 76.76 77.74 74.98 76.83 73.81 72.61 73.84 75.56 75.52 77.05 77.88 77.88 78.28 78.03 78.27 78.63 76.06 77.80 77.00 76.98 77.50 76.65 71.49
50.60 52.96 51.16 50.70 50.37 51.71 54.21 52.88 56.54 62.45 61.11 65.06 67.16 68.86 70.04 70.15 70.55 71.19 71.87 72.49 73.02 72.67 72.45 73.63 76.32 77.08 76.98 77.11 77.18 75.22 75.65 73.99 74.17 74.08 78.87 81.04 80.16 78.15 77.24 78.58 78.21 78.23 77.01 78.05 77.58 77.26 77.65 75.33 74.24
54.32 51.86 51.38 51.08 49.38 44.82 50.85 52.81 54.37 57.25 61.26 63.78 67.23 68.43 69.68 70.62 70.70 71.56 72.63 73.15 73.26 73.60 72.89 73.22 76.01 76.78 77.30 77.34 76.51 77.85 76.58 76.72 73.12 74.74 74.96 75.04 76.14 76.84 78.13 77.90 78.47 79.31 78.65 77.92 77.64 78.01 77.68 78.34 77.26
53.30 50.47 44.82 43.17 43.38 42.79 49.57 50.01 56.11 60.05 62.70 63.63 66.53 68.12 69.60 70.68 71.24 71.26 71.78 72.06 72.92 73.31 73.60 73.98 75.91 76.66 77.14 76.86 76.07 77.23 78.67 78.43 78.58 77.79 74.07 75.42 73.69 74.31 78.97 79.70 79.69 78.43 79.24 78.82 79.26 79.07 78.11 77.48 76.46
51.54 50.49 45.68 41.26 42.53 44.28 49.21 46.53 52.37 60.44 63.81 64.61 67.13 68.17 69.78 70.50 71.24 71.54 72.27 72.56 73.06 73.80 75.51 75.63 76.11 76.64 77.10 76.60 76.36 76.64 78.45 74.85 74.32 77.62 75.27 73.98 73.98 74.81 80.91 78.76 78.22 78.27 78.92 77.93 79.39 77.51 76.98 79.22 76.90
51.46 48.62 52.44 48.17 49.84 46.79 47.91 49.79 53.77 57.40 59.90 63.41 62.90 66.94 68.23 70.28 71.16 71.86 72.52 72.89 73.15 74.23 76.01 76.26 76.62 76.97 77.25 76.44 76.89 77.39 77.47 76.95 75.39 78.58 79.18 76.38 78.81 75.46 76.53 76.90 78.24 78.33 78.33 79.17 80.92 77.05 77.56 77.88 78.04
52.35 54.67 47.92 48.83 43.38 42.98 47.90 49.12 48.00 53.48 56.85 60.35 62.21 65.08 67.13 69.82 70.43 71.52 72.62 73.19 73.66 73.88 74.97 76.67 77.28 77.18 77.49 76.63 77.56 77.20 77.32 77.85 78.39 79.45 79.69 78.91 79.24 78.98 77.39 77.12 76.91 77.60 78.66 78.98 80.80 78.82 79.89 78.69 76.97
50.23 49.45 51.07 51.47 49.25 45.22 44.80 48.86 56.20 54.67 57.70 59.30 61.09 64.07 65.75 66.97 69.26 70.41 71.72 73.36 74.11 74.52 74.39 74.82 76.19 77.12 77.31 77.21 77.25 77.21 77.41 77.21 78.02 77.70 78.91 79.09 79.87 80.23 79.48 78.59 77.51 77.19 77.38 78.69 80.27 80.12 79.27 79.23 79.67
50.87 50.47 50.67 47.42 47.56 49.59 49.23 49.60 57.80 57.39 57.59 59.64 61.72 63.44 64.97 66.11 67.43 68.89 71.10 72.52 73.54 74.10 74.34 74.61 74.91 74.81 76.32 77.25 77.58 77.34 78.19 78.05 77.73 77.75 77.99 79.30 79.26 80.30 80.20 79.68 78.99 78.05 77.47 79.28 78.98 77.17 77.49 77.25 77.31
MSLP
1010.77 1010.22 1009.89 1010.23 1009.76 1007.86 1006.30 1006.11 1005.59 1004.14 1003.87 1003.73 1004.06 1004.82 1005.96 1006.48 1007.49 1009.20 1010.82 1011.64 1012.34 1013.15 1014.18 1014.86 1015.34 1015.55 1015.72 1015.99 1016.14 1016.19 1016.34 1016.53 1016.66 1016.80 1016.98 1017.14 1017.20 1017.34 1017.45 1017.54 1017.57 1017.63 1017.72 1017.70 1017.70 1017.74 1017.74 1017.78 1017.87
1009.06 1009.34 1009.70 1009.37 1008.23 1006.25 1005.56 1005.92 1005.07 1004.59 1004.14 1004.62 1004.78 1005.08 1005.77 1007.10 1008.06 1009.62 1010.72 1011.74 1012.53 1013.07 1013.99 1014.68 1015.65 1015.82 1016.04 1016.19 1016.27 1016.34 1016.49 1016.70 1016.78 1016.96 1017.18 1017.40 1017.48 1017.66 1017.74 1017.74 1017.76 1017.83 1017.90 1017.98 1017.97 1018.03 1018.03 1018.14 1018.23
1009.74 1009.10 1009.00 1008.05 1006.32 1005.28 1004.59 1004.66 1004.36 1004.24 1004.40 1004.70 1005.22 1005.28 1006.78 1007.98 1009.14 1009.66 1011.09 1011.84 1012.38 1013.21 1013.55 1015.15 1015.83 1016.04 1016.28 1016.38 1016.41 1016.58 1016.76 1017.00 1017.13 1017.31 1017.38 1017.62 1017.74 1017.80 1017.82 1017.91 1017.99 1018.07 1018.10 1018.20 1018.26 1018.34 1018.40 1018.46 1018.52
1009.24 1009.25 1008.42 1007.27 1005.29 1004.66 1004.33 1004.40 1003.91 1004.27 1005.69 1005.25 1005.66 1006.52 1008.20 1008.41 1009.18 1010.07 1010.98 1012.10 1012.62 1012.87 1013.80 1015.68 1016.00 1016.22 1016.50 1016.61 1016.71 1016.87 1017.12 1017.31 1017.41 1017.47 1017.59 1017.78 1017.88 1018.02 1018.18 1018.08 1018.17 1018.24 1018.36 1018.44 1018.53 1018.60 1018.65 1018.69 1018.77
1008.82 1008.90 1007.62 1006.14 1005.26 1004.51 1004.20 1004.47 1004.12 1004.54 1005.07 1005.23 1005.84 1007.16 1008.57 1009.54 1009.54 1010.18 1011.31 1012.22 1012.00 1012.46 1014.46 1015.55 1016.22 1016.44 1016.70 1016.95 1016.99 1017.17 1017.35 1017.50 1017.63 1017.72 1017.96 1018.08 1018.22 1018.33 1018.23 1018.32 1018.43 1018.50 1018.59 1018.65 1018.70 1018.86 1018.82 1018.96 1019.07
1008.58 1007.88 1006.76 1005.73 1004.85 1004.52 1003.96 1003.61 1003.71 1004.31 1004.88 1005.06 1006.24 1007.54 1009.15 1010.23 1009.94 1010.44 1011.16 1011.74 1011.24 1012.64 1014.15 1015.56 1016.57 1016.66 1016.94 1017.13 1017.17 1017.34 1017.49 1017.67 1017.85 1018.02 1018.26 1018.27 1018.39 1018.47 1018.46 1018.52 1018.60 1018.68 1018.74 1018.86 1018.92 1019.01 1019.04 1019.12 1019.11
1007.80 1007.15 1005.84 1004.58 1004.49 1004.01 1003.33 1003.89 1003.57 1003.96 1004.06 1004.62 1005.47 1006.90 1008.96 1009.82 1010.29 1010.71 1010.58 1010.86 1011.22 1012.73 1013.98 1015.18 1016.00 1016.72 1017.11 1017.40 1017.52 1017.62 1017.78 1018.00 1018.14 1018.18 1018.36 1018.48 1018.54 1018.58 1018.69 1018.63 1018.74 1018.88 1019.02 1019.08 1019.09 1019.18 1019.24 1019.22 1019.26
1006.73 1006.37 1005.53 1004.83 1003.76 1003.18 1002.99 1003.16 1003.68 1003.36 1004.49 1004.31 1005.16 1006.50 1008.39 1008.96 1010.14 1010.63 1010.29 1011.07 1011.51 1012.74 1014.13 1014.79 1015.66 1016.10 1016.62 1017.34 1017.72 1017.93 1018.03 1018.26 1018.26 1018.38 1018.49 1018.57 1018.62 1018.74 1018.78 1018.81 1018.96 1019.09 1019.17 1019.18 1019.27 1019.38 1019.36 1019.33 1019.45
1005.80 1005.30 1004.34 1003.92 1002.47 1002.77 1002.80 1003.63 1004.25 1004.17 1004.01 1004.59 1005.11 1005.77 1007.70 1008.92 1009.84 1010.22 1010.27 1011.05 1011.86 1012.92 1013.73 1014.05 1014.94 1015.67 1016.13 1016.79 1017.74 1018.14 1018.38 1018.39 1018.46 1018.42 1018.48 1018.39 1017.66 1018.10 1018.57 1018.98 1019.13 1019.22 1019.40 1019.35 1019.36 1019.17 1018.98 1019.00 1019.18
1004.82 1003.72 1004.18 1004.10 1002.93 1002.90 1002.38 1003.41 1004.15 1003.28 1003.77 1004.70 1005.48 1006.27 1008.10 1008.98 1009.58 1009.74 1010.18 1010.90 1011.90 1012.77 1013.44 1013.77 1013.91 1014.98 1016.11 1015.88 1017.38 1017.28 1017.88 1017.63 1017.66 1017.80 1018.20 1017.93 1017.76 1018.16 1018.06 1019.01 1019.29 1019.38 1019.49 1019.37 1019.18 1018.98 1018.82 1018.85 1018.34
1003.84 1003.45 1004.06 1003.27 1001.71 1002.35 1002.18 1003.26 1002.86 1002.62 1003.19 1003.77 1005.17 1007.02 1008.62 1008.91 1009.45 1009.68 1010.38 1011.04 1011.80 1012.80 1013.04 1013.67 1014.06 1015.04 1015.19 1015.92 1016.11 1016.49 1016.90 1017.03 1017.58 1017.83 1017.74 1017.53 1017.81 1017.89 1018.12 1018.54 1018.66 1018.85 1019.28 1018.65 1018.78 1018.72 1018.95 1019.60 1018.58
1003.13 1002.78 1002.64 1002.72 1001.65 1002.59 1002.95 1002.40 1001.97 1002.90 1003.44 1003.84 1005.22 1007.47 1008.53 1008.90 1009.10 1009.52 1010.30 1011.08 1011.92 1012.75 1013.02 1013.76 1014.43 1015.24 1015.15 1015.66 1015.55 1015.68 1016.05 1016.67 1017.14 1017.64 1017.79 1017.75 1018.09 1017.92 1018.22 1018.04 1017.99 1018.09 1018.28 1018.09 1018.12 1018.43 1018.00 1018.17 1019.28
1002.69 1001.95 1001.89 1001.79 1001.79 1002.02 1002.46 1001.92 1002.38 1002.35 1002.85 1003.92 1005.60 1007.43 1008.36 1008.86 1009.08 1009.49 1010.22 1011.19 1012.10 1012.77 1013.23 1014.04 1015.00 1015.67 1015.82 1016.00 1015.67 1015.61 1016.14 1016.21 1016.49 1017.58 1017.64 1017.30 1018.07 1017.89 1018.08 1017.97 1018.44 1018.14 1017.90 1017.80 1018.28 1018.09 1018.26 1018.18 1018.00
1002.14 1002.15 1001.68 1001.51 1001.29 1001.58 1002.46 1001.74 1001.66 1002.01 1003.11 1004.44 1005.85 1007.00 1007.99 1008.53 1008.83 1009.41 1010.20 1011.01 1011.99 1012.77 1013.43 1014.27 1015.19 1015.87 1016.25 1016.20 1016.42 1016.33 1016.35 1016.46 1016.45 1016.77 1017.69 1018.10 1018.58 1018.03 1018.08 1018.04 1018.24 1017.84 1018.59 1018.47 1018.12 1018.15 1019.19 1018.47 1018.73
1002.19 1002.05 1001.55 1001.26 1001.08 1000.97 1001.68 1001.62 1001.30 1002.18 1003.27 1004.39 1005.64 1006.71 1007.53 1008.08 1008.70 1009.23 1010.08 1010.88 1011.96 1012.80 1013.54 1014.30 1015.08 1015.79 1016.49 1016.53 1016.98 1016.64 1016.64 1016.42 1016.68 1017.75 1017.97 1017.90 1018.61 1018.36 1018.04 1017.96 1018.30 1018.15 1018.36 1018.37 1018.43 1018.45 1018.25 1018.29 1019.47
1002.23 1001.76 1000.44 1000.08 1000.60 1000.64 1001.12 1000.64 1001.18 1002.50 1003.18 1004.02 1005.10 1006.15 1007.10 1007.79 1008.57 1009.26 1010.08 1010.94 1011.88 1012.54 1013.46 1014.26 1014.67 1015.54 1016.38 1016.61 1017.07 1016.53 1016.32 1016.52 1017.34 1017.62 1017.62 1017.92 1018.36 1018.47 1018.42 1017.94 1018.10 1018.30 1018.50 1019.22 1018.56 1018.76 1019.60 1018.75 1019.22
1001.19 1000.00 999.71 999.05 999.17 999.71 1000.40 1001.15 1002.81 1001.84 1003.08 1003.68 1004.60 1005.64 1006.57 1007.47 1008.49 1009.30 1009.93 1010.88 1011.74 1012.58 1013.37 1014.11 1014.64 1015.26 1016.20 1016.70 1016.98 1016.60 1016.59 1016.77 1017.15 1017.24 1017.91 1017.76 1018.19 1018.61 1018.46 1017.99 1018.41 1018.70 1018.12 1018.08 1018.14 1019.37 1019.65 1019.00 1019.08
999.57 999.30 998.22 998.35 998.04 999.18 999.45 1000.98 1002.16 1002.20 1002.32 1003.19 1004.01 1005.07 1005.97 1006.87 1007.90 1009.06 1009.73 1010.59 1011.39 1012.32 1013.29 1014.09 1014.64 1015.13 1016.07 1016.55 1016.86 1016.68 1016.93 1016.68 1016.72 1016.96 1017.23 1017.77 1017.92 1018.49 1018.58 1018.26 1018.50 1018.36 1018.41 1018.67 1018.65 1018.74 1019.16 1019.42 1019.04
999.02 998.36 997.88 997.17 997.34 998.48 998.84 999.58 1000.68 1000.94 1001.58 1002.20 1003.16 1004.35 1005.23 1006.05 1007.19 1008.58 1009.42 1010.28 1011.02 1011.94 1012.93 1013.87 1014.44 1015.08 1015.85 1016.28 1016.60 1016.52 1016.48 1016.63 1016.58 1016.55 1017.01 1017.71 1017.80 1018.17 1018.55 1018.35 1018.67 1018.38 1018.43 1019.42 1018.96 1019.04 1018.95 1018.40 1018.59
999.97 999.11 997.84 997.38 997.33 997.71 998.11 998.61 999.45 1000.50 1000.69 1001.17 1002.18 1003.62 1004.57 1005.49 1006.70 1007.88 1009.01 1009.78 1010.54 1011.53 1012.53 1013.56 1014.22 1014.99 1015.74 1016.00 1016.28 1016.22 1016.26 1016.38 1016.22 1016.32 1017.12 1017.53 1017.84 1018.12 1018.05 1018.37 1018.64 1018.63 1018.60 1019.18 1019.22 1019.36 1019.37 1018.67 1018.84
1000.32 999.61 998.83 998.03 997.64 997.66 997.90 997.90 998.72 1001.32 1001.69 1000.95 1001.32 1002.83 1003.90 1004.75 1005.69 1007.02 1008.32 1009.09 1010.07 1010.91 1011.94 1013.06 1013.99 1014.71 1015.51 1015.62 1016.08 1016.30 1016.30 1016.18 1016.26 1016.31 1016.99 1017.31 1017.63 1017.88 1017.98 1018.44 1019.68 1018.94 1018.84 1018.84 1019.26 1019.05 1018.92 1019.14 1018.72
1000.06 1000.32 999.78 998.84 998.04 997.55 998.26 997.04 997.28 1000.36 1001.49 1000.38 1000.57 1001.48 1002.80 1003.90 1005.00 1006.12 1007.30 1008.25 1009.10 1010.13 1011.38 1012.49 1013.67 1014.39 1015.17 1015.48 1015.61 1015.90 1015.82 1015.75 1015.80 1016.01 1016.29 1016.88 1017.38 1017.54 1018.15 1018.46 1018.59 1018.81 1018.68 1018.77 1018.98 1018.88 1018.83 1018.71 1018.43
1000.43 1000.25 1000.14 999.89 999.02 998.04 997.13 997.39 995.66 996.70 998.11 998.50 999.70 1000.41 1001.54 1002.68 1003.78 1004.68 1005.87 1007.13 1008.10 1009.40 1010.49 1011.62 1013.00 1013.95 1014.53 1015.13 1015.10 1015.57 1015.68 1015.60 1015.73 1015.75 1016.19 1016.54 1017.22 1017.38 1017.45 1017.89 1018.38 1018.61 1018.53 1018.68 1018.82 1019.07 1019.14 1018.55 1018.55
1001.19 1000.84 1000.28 1000.01 999.58 998.16 997.45 996.36 995.27 995.28 996.34 997.49 998.51 999.48 1000.49 1001.29 1002.60 1003.66 1004.93 1006.28 1007.46 1008.52 1009.64 1010.79 1012.09 1013.22 1014.08 1014.62 1015.10 1015.12 1015.40 1015.19 1015.24 1015.64 1015.84 1016.48 1016.63 1017.27 1017.41 1017.57 1018.03 1018.31 1018.07 1018.59 1018.75 1019.12 1019.23 1019.25 1018.70
1000.86 1000.35 999.76 999.36 998.51 996.95 997.08 996.24 994.34 994.13 995.54 996.23 996.78 998.28 999.36 1000.34 1001.48 1002.67 1003.72 1004.96 1006.25 1007.21 1008.38 1009.52 1010.89 1012.22 1013.26 1013.91 1014.57 1014.81 1015.00 1015.39 1015.30 1015.57 1015.79 1015.90 1015.86 1016.06 1016.80 1017.38 1017.74 1017.94 1018.29 1018.25 1018.49 1019.08 1019.19 1019.31 1019.12
1000.00 999.53 998.45 997.31 996.49 996.04 996.26 994.68 994.48 994.39 994.98 996.18 995.48 996.75 998.07 999.29 1000.33 1001.52 1002.64 1003.78 1004.99 1006.09 1007.21 1008.37 1009.64 1011.03 1012.11 1012.96 1013.70 1014.53 1014.83 1014.94 1015.32 1015.45 1015.29 1015.58 1015.31 1015.54 1015.94 1016.94 1017.26 1017.59 1017.74 1018.18 1018.25 1018.74 1018.80 1018.87 1019.22
999.10 999.19 998.73 997.41 995.80 994.83 994.11 994.61 994.54 994.55 994.69 995.89 997.23 995.74 996.46 997.87 999.15 1000.24 1001.49 1002.72 1003.82 1005.03 1006.09 1007.26 1008.49 1010.01 1011.20 1011.94 1012.84 1013.59 1014.34 1014.66 1014.58 1014.84 1015.50 1015.44 1015.39 1015.21 1015.72 1016.30 1016.99 1017.12 1017.37 1017.56 1017.81 1018.34 1018.59 1018.93 1019.06
999.44 998.93 998.84 997.87 996.18 994.28 993.14 992.46 992.86 993.61 993.94 994.80 995.40 995.04 995.77 996.41 997.76 999.01 1000.12 1001.47 1002.69 1003.86 1005.12 1006.41 1007.63 1008.78 1009.80 1010.87 1011.70 1012.40 1013.20 1013.91 1014.26 1014.50 1014.85 1015.14 1015.37 1015.61 1015.66 1016.22 1016.58 1016.94 1017.01 1017.30 1017.72 1017.70 1017.97 1018.39 1018.82
1000.74 999.62 998.78 997.61 997.06 995.16 993.63 992.31 992.08 992.64 993.76 994.09 994.69 995.46 995.64 995.94 996.66 997.78 998.86 1000.10 1001.55 1002.87 1004.25 1005.45 1006.67 1007.81 1009.02 1009.96 1010.68 1011.45 1012.15 1012.90 1013.60 1013.86 1014.21 1014.81 1015.17 1015.42 1015.79 1016.00 1016.35 1016.60 1016.79 1017.06 1017.45 1017.56 1017.36 1017.82 1018.05
1000.87 999.70 999.41 997.96 996.91 996.01 994.51 992.80 992.06 991.96 993.09 994.16 994.75 994.88 995.45 995.68 996.00 996.62 997.40 998.94 1000.28 1001.76 1002.90 1004.17 1005.33 1006.54 1007.67 1008.60 1009.54 1010.35 1011.05 1011.72 1012.38 1012.99 1013.49 1014.06 1014.70 1015.17 1015.44 1015.80 1015.98 1016.22 1016.42 1016.65 1016.99 1017.28 1017.00 1017.40 1017.39
Wind_Speed
13 14 6 2 4 6 4 6 2 9 8 12 8 9 16 14 7 12 23 19 22 18 17 15 11 12 11 11 11 12 12 12 11 10 10 10 9 10 10 9 9 10 11 9 10 9 10 11 10
13 8 5 4 5 3 6 8 7 7 8 13 10 13 11 16 14 22 19 23 21 18 17 16 12 12 11 10 11 12 11 10 10 10 9 10 10 9 10 9 10 11 11 10 10 10 10 11 11
13 12 3 4 5 1 11 11 10 12 15 9 8 7 9 12 22 21 21 24 20 16 17 16 14 12 12 10 11 14 12 11 9 9 10 10 10 10 9 10 9 11 11 11 10 9 10 10 11
7 3 5 6 2 3 14 4 9 16 12 4 10 13 10 13 22 22 26 20 18 18 19 16 14 14 12 11 11 13 12 11 11 11 11 11 10 9 9 10 9 10 11 10 9 8 8 8 9
3 4 5 7 3 6 7 10 15 14 12 12 9 10 12 16 13 25 26 20 20 21 18 16 12 14 13 13 11 12 12 12 12 12 12 12 11 9 9 9 9 8 9 10 9 9 10 10 9
2 5 4 3 4 5 7 11 13 10 10 13 19 17 10 11 18 20 25 20 19 21 18 16 15 14 13 12 12 11 11 12 12 13 12 11 11 10 9 8 8 8 7 8 8 7 8 8 9
10 6 5 5 8 11 11 5 10 17 14 12 14 12 14 17 22 20 20 18 19 20 17 15 15 15 13 12 11 10 11 12 12 11 12 11 11 10 9 8 8 8 7 8 8 7 7 7 10
11 5 2 4 7 6 17 13 10 9 9 9 19 7 17 20 24 18 19 18 18 19 16 15 14 13 13 12 11 11 12 12 13 13 13 12 11 10 10 10 8 8 7 7 7 7 7 9 10
11 10 7 5 8 8 11 5 1 17 11 5 5 11 25 27 26 20 20 19 16 16 15 15 16 12 12 13 11 12 13 12 13 11 12 13 9 11 12 12 8 8 7 7 6 7 9 12 11
15 12 1 7 14 14 15 14 10 8 11 8 9 20 26 28 25 22 21 19 18 17 16 13 16 16 9 13 12 11 13 11 9 8 10 6 3 5 12 10 8 7 8 8 7 8 6 1 4
17 15 11 26 10 8 6 16 19 9 14 16 17 25 27 27 25 22 22 19 17 17 13 14 12 12 13 12 10 7 7 7 7 5 3 5 6 4 5 8 7 7 10 8 10 8 9 4 7
18 13 14 13 2 5 8 4 11 11 6 14 23 25 28 28 24 23 22 20 19 17 14 13 13 10 7 8 8 7 7 6 7 8 4 4 2 0 6 1 6 3 4 4 3 8 4 5 11
19 18 10 12 5 6 6 16 0 15 11 19 24 26 27 25 23 22 20 20 19 17 14 13 13 10 7 6 4 5 8 7 10 8 5 3 1 3 1 2 1 4 4 6 9 4 4 5 4
10 18 14 10 10 8 10 12 7 16 12 19 22 25 26 26 24 21 21 20 19 17 16 15 14 11 10 6 4 4 7 5 7 6 8 1 3 2 3 4 3 2 6 9 2 5 8 3 5
16 11 16 17 12 8 11 12 15 17 14 19 21 23 25 24 23 22 20 19 18 16 17 16 15 14 11 7 7 6 5 8 6 5 6 3 4 4 2 2 2 2 5 3 6 2 6 4 11
16 19 17 20 20 17 15 18 17 18 17 19 21 21 23 24 23 20 20 19 18 17 17 16 13 15 13 9 8 7 7 3 5 4 5 6 5 3 4 3 5 3 5 5 1 2 4 3 8
15 16 22 18 22 18 18 9 13 18 16 18 19 21 21 22 21 21 21 19 19 17 17 16 14 15 13 11 8 8 7 4 5 4 6 7 7 5 3 2 6 5 1 3 7 8 8 5 7
18 19 19 20 19 21 19 10 22 31 18 19 19 20 22 23 25 22 21 20 19 18 17 16 14 13 12 10 7 7 8 6 6 6 6 7 5 7 5 3 5 5 1 6 4 7 4 4 4
15 17 21 18 16 17 22 16 18 15 18 19 19 20 21 24 23 23 21 21 20 19 18 17 15 12 11 9 10 9 9 7 5 5 6 7 4 7 5 1 5 3 2 3 2 3 3 1 1
20 14 16 19 17 16 19 17 21 17 17 19 19 19 20 22 23 23 22 22 21 20 19 17 15 13 11 9 8 8 7 9 8 7 8 8 7 7 6 5 4 3 4 3 4 4 4 4 3
18 18 15 16 15 18 17 20 19 8 16 18 18 20 20 22 26 24 25 23 22 22 20 18 15 15 13 12 8 7 7 5 7 7 7 8 9 8 3 3 7 5 4 6 5 4 4 4 3
18 17 18 16 17 16 20 16 22 29 29 19 16 21 21 23 23 25 25 25 25 22 21 18 17 15 14 13 12 12 9 9 8 7 9 10 9 9 9 6 5 5 3 1 5 7 7 5 6
17 16 17 18 16 16 19 19 16 24 20 22 21 20 23 23 25 27 27 26 25 23 22 20 18 16 15 14 12 12 12 9 9 8 11 4 8 7 8 8 7 5 8 5 1 1 3 5 3
17 17 16 16 15 18 23 20 20 16 22 22 23 23 22 24 24 25 26 25 23 22 22 21 20 18 17 16 16 14 14 11 9 9 9 9 8 9 8 9 7 7 5 5 6 4 5 4 6
17 19 13 15 16 18 23 25 16 18 20 19 27 24 24 23 22 23 24 25 25 26 25 21 21 20 19 18 17 14 13 13 8 10 9 10 9 9 12 8 8 8 7 6 5 6 4 5 5
20 21 14 21 16 17 23 24 21 20 10 8 19 24 23 24 22 23 24 24 25 26 24 22 22 22 21 20 18 16 14 11 11 10 9 9 8 8 11 10 9 9 10 8 7 8 7 7 6
24 24 22 23 21 19 18 26 21 28 21 15 15 19 23 24 23 24 25 24 24 24 24 23 21 22 21 21 17 17 15 16 13 12 11 8 7 7 8 9 10 10 9 8 8 7 7 6 6
22 15 23 18 24 23 18 19 18 23 21 22 14 15 19 25 24 22 23 25 24 25 24 23 22 23 23 22 20 18 18 17 14 12 11 11 9 9 4 9 10 10 9 9 8 8 10 7 7
18 20 17 17 22 18 15 12 12 23 19 16 22 17 16 17 21 21 22 23 24 23 23 24 23 22 22 21 20 19 18 19 17 14 13 12 9 8 10 9 10 10 10 10 9 9 7 10 9
24 19 27 16 21 19 17 13 9 14 18 20 19 21 19 19 18 19 22 22 23 24 24 24 25 25 23 21 20 20 19 19 18 17 16 14 13 11 10 11 11 11 11 10 11 12 10 10 9
Wind_Direction
188 192 207 198 248 215 238 67 8 122 87 90 82 104 85 33 41 107 137 138 131 140 133 146 132 125 119 118 119 115 116 119 121 121 118 119 115 109 99 103 91 87 81 83 84 86 95 93 94
194 169 203 286 249 241 99 129 120 86 109 108 120 111 75 73 93 128 124 145 135 143 143 137 128 126 124 130 123 117 113 114 118 125 120 116 115 104 108 103 94 87 89 87 86 79 93 97 94
259 225 258 244 243 322 114 124 159 120 121 131 96 89 53 87 120 130 140 129 146 140 141 117 133 135 126 116 105 110 106 111 116 118 123 124 118 114 114 96 91 95 91 94 94 92 92 95 82
188 249 243 260 345 32 122 153 115 127 120 215 134 89 82 108 142 130 138 134 140 151 121 130 137 127 131 118 104 103 106 99 115 111 116 117 122 120 103 106 105 101 96 95 97 99 98 98 94
197 256 249 246 185 134 125 159 178 118 165 152 109 87 104 116 140 143 129 149 170 127 127 134 139 133 124 123 117 113 110 108 107 109 114 115 122 115 115 106 99 98 100 98 94 92 96 96 99
247 249 279 280 151 113 147 167 141 149 163 141 117 117 113 146 144 149 145 167 146 123 144 133 136 130 125 123 122 123 122 119 117 116 113 119 118 123 119 113 109 106 107 107 97 93 88 93 98
236 261 255 163 152 169 128 156 155 191 155 150 150 110 128 167 151 155 162 148 138 135 126 134 134 125 124 119 124 122 125 115 115 121 119 126 124 121 117 120 109 104 104 109 109 102 96 98 112
242 284 239 137 211 202 139 162 176 140 86 140 125 159 158 158 156 170 154 150 138 130 143 148 141 142 146 137 128 125 119 126 125 126 130 134 131 134 140 136 107 101 105 113 119 113 108 113 125
219 253 286 230 206 218 146 101 198 249 141 141 155 157 149 156 156 176 150 154 140 140 155 151 144 168 129 129 131 132 124 132 132 143 157 170 145 165 157 83 115 115 115 121 130 153 155 150 145
243 250 75 253 119 281 135 139 232 173 145 151 130 113 146 164 156 171 160 156 155 150 159 156 154 137 172 133 158 155 148 161 153 142 177 216 94 59 99 112 127 129 137 146 171 189 178 259 175
221 258 172 267 50 82 249 151 192 164 179 156 138 138 153 164 168 167 163 164 160 159 169 158 139 147 171 116 174 158 172 142 122 132 221 113 140 158 191 139 155 153 180 175 188 186 158 216 270
250 228 262 323 81 80 309 242 174 97 283 136 137 147 163 165 177 167 167 166 160 166 171 160 136 152 138 147 187 165 126 150 157 151 189 155 249 89 117 345 125 183 162 170 215 146 100 134 94
226 261 229 227 232 126 197 231 327 135 121 120 138 153 165 169 180 168 167 164 163 169 164 157 147 160 133 185 173 157 129 186 124 153 203 150 238 109 42 76 255 191 156 170 142 128 229 100 94
231 236 261 239 231 187 210 231 187 121 130 131 150 160 166 173 181 167 174 167 167 172 164 159 160 165 152 204 149 139 172 105 158 155 132 96 359 163 130 183 258 58 121 47 31 85 345 231 28
255 256 231 244 228 218 223 218 193 130 154 148 158 166 172 178 179 172 174 169 171 180 164 162 168 166 161 167 175 206 154 155 90 85 135 192 97 139 280 102 55 126 131 126 164 250 206 154 103
228 239 246 206 220 228 209 218 176 153 161 159 162 171 176 177 178 176 174 174 174 184 167 169 181 165 167 167 182 211 172 208 132 182 155 132 123 86 249 182 113 45 66 225 339 129 351 131 154
202 234 218 240 197 215 208 220 31 164 170 162 165 171 177 182 173 182 179 178 174 187 170 180 188 167 170 160 181 216 123 226 152 156 145 137 151 129 280 140 102 229 215 183 168 126 207 98 255
213 218 236 216 177 211 202 176 135 229 175 164 169 172 180 185 177 182 186 181 179 182 174 189 182 166 169 157 185 203 149 220 175 171 126 131 137 139 209 129 134 239 167 55 324 70 160 188 187
269 239 228 198 205 209 231 197 137 194 174 166 172 177 183 186 180 175 191 184 182 183 179 187 183 166 174 177 189 189 178 198 193 206 110 143 151 150 165 161 164 238 84 222 172 145 215 86 24
254 254 266 239 215 209 220 224 176 177 177 174 175 178 183 184 180 178 192 186 189 186 183 184 186 171 189 191 197 196 201 182 204 193 156 198 179 155 177 143 140 187 157 167 208 124 284 136 122
233 242 245 250 222 225 243 235 178 104 282 185 180 175 183 187 184 185 187 191 193 188 187 184 187 177 188 197 193 199 198 218 205 144 171 191 183 176 189 198 137 174 252 165 205 257 260 310 180
236 223 255 263 245 209 229 244 223 160 210 191 188 173 184 185 193 186 187 194 193 191 189 184 185 186 188 208 183 187 199 201 185 197 190 157 193 188 159 188 183 190 207 279 197 222 308 238 147
243 250 217 244 257 258 225 227 255 191 183 184 192 192 186 186 189 189 191 192 195 193 190 189 182 189 194 195 209 181 218 197 187 206 135 201 169 197 195 179 181 190 198 180 275 143 279 282 311
241 242 249 227 236 238 239 243 219 212 195 191 188 195 194 190 187 195 192 190 196 193 193 192 183 189 195 191 213 194 195 227 204 198 171 185 188 187 211 187 183 202 219 173 191 187 226 284 320
220 221 217 215 222 234 221 237 250 206 191 210 190 196 191 195 195 192 190 193 192 195 194 192 183 187 191 191 196 209 206 213 238 176 214 196 204 199 165 199 193 189 218 174 171 197 223 213 244
214 215 222 210 215 224 229 217 229 252 192 152 211 191 192 196 193 196 196 194 192 198 192 194 185 187 189 194 195 200 203 207 218 205 207 216 223 199 145 178 204 222 184 203 191 194 222 194 211
208 220 241 254 249 239 209 215 234 223 235 155 272 190 182 189 199 193 195 198 197 195 194 192 189 187 192 193 191 192 202 213 202 212 211 235 224 225 172 195 198 215 214 210 177 232 207 150 223
261 242 221 242 247 253 232 220 203 220 218 216 204 229 191 187 192 200 198 196 199 197 196 193 194 190 191 194 192 193 192 199 219 202 209 210 221 234 220 196 207 215 217 211 214 215 195 176 220
229 249 256 250 229 246 247 224 238 197 202 224 206 214 208 215 193 197 197 196 198 199 197 197 194 193 193 198 196 197 193 196 201 214 199 211 223 224 206 223 205 216 213 208 206 240 250 192 209
244 251 234 239 227 235 256 237 10 189 184 200 228 214 215 215 208 197 190 194 192 198 198 198 198 199 196 200 198 198 196 197 199 203 210 199 207 208 220 211 214 213 216 210 207 219 226 221 227